Time,TemperatureF,DewpointF,PressureIn,WindDirection,WindDirectionDegrees,WindSpeedMPH,WindSpeedGustMPH,Humidity,HourlyPrecipIn,Conditions,Clouds,dailyrainin,SoftwareType,DateUTC
2013-09-06 00:10:00,58.6,55.4,30.07,WSW,247,0.0,-999.0,89,-99.99,,,0.00,Acu-Link.com,2013-09-06 04:10:00,
2013-09-06 00:25:00,58.3,55.7,30.07,WNW,292,1.7,-999.0,91,-99.99,,,0.00,Acu-Link.com,2013-09-06 04:25:00,
2013-09-06 00:40:00,57.4,55.4,30.07,WNW,292,0.0,-999.0,93,-99.99,,,0.00,Acu-Link.com,2013-09-06 04:40:00,
2013-09-06 00:55:00,56.8,55.1,30.08,WNW,292,0.0,-999.0,94,-99.99,,,0.00,Acu-Link.com,2013-09-06 04:55:00,
2013-09-06 01:11:00,56.8,55.4,30.08,ESE,112,0.0,-999.0,95,-99.99,,,0.00,Acu-Link.com,2013-09-06 05:11:00,
2013-09-06 01:26:00,57.0,55.9,30.08,West,270,2.2,-999.0,96,-99.99,,,0.00,Acu-Link.com,2013-09-06 05:26:00,
2013-09-06 01:41:00,59.4,57.7,30.07,WSW,247,3.2,-999.0,94,-99.99,,,0.00,Acu-Link.com,2013-09-06 05:41:00,
2013-09-06 01:57:00,59.2,57.2,30.07,SSW,202,3.2,-999.0,93,-99.99,,,0.00,Acu-Link.com,2013-09-06 05:57:00,
2013-09-06 02:12:00,58.1,56.1,30.07,SW,225,0.0,-999.0,93,-99.99,,,0.00,Acu-Link.com,2013-09-06 06:12:00,
2013-09-06 02:27:00,57.9,56.5,30.07,South,180,1.1,-999.0,95,-99.99,,,0.00,Acu-Link.com,2013-09-06 06:27:00,
2013-09-06 02:43:00,56.8,55.7,30.06,SSW,202,0.0,-999.0,96,-99.99,,,0.00,Acu-Link.com,2013-09-06 06:43:00,
2013-09-06 02:58:00,56.7,55.9,30.06,SSW,202,0.0,-999.0,97,-99.99,,,0.00,Acu-Link.com,2013-09-06 06:58:00,
2013-09-06 03:13:00,56.5,55.7,30.06,West,270,0.0,-999.0,97,-99.99,,,0.00,Acu-Link.com,2013-09-06 07:13:00,
2013-09-06 03:28:00,57.0,56.4,30.06,WSW,247,0.0,-999.0,98,-99.99,,,0.00,Acu-Link.com,2013-09-06 07:28:00,
2013-09-06 03:44:00,56.1,55.5,30.07,WSW,247,0.0,-999.0,98,-99.99,,,0.00,Acu-Link.com,2013-09-06 07:44:00,
2013-09-06 03:59:00,55.9,55.3,30.06,WNW,292,0.0,-999.0,98,-99.99,,,0.00,Acu-Link.com,2013-09-06 07:59:00,
2013-09-06 04:15:00,56.7,56.4,30.06,WSW,247,1.1,-999.0,99,-99.99,,,0.00,Acu-Link.com,2013-09-06 08:15:00,
2013-09-06 04:31:00,56.1,55.5,30.06,West,270,0.0,-999.0,98,-99.99,,,0.00,Acu-Link.com,2013-09-06 08:31:00,
2013-09-06 04:46:00,55.9,55.3,30.07,West,270,0.0,-999.0,98,-99.99,,,0.00,Acu-Link.com,2013-09-06 08:46:00,
2013-09-06 05:01:00,55.8,55.5,30.07,West,270,0.0,-999.0,99,-99.99,,,0.00,Acu-Link.com,2013-09-06 09:01:00,
2013-09-06 05:16:00,55.2,54.9,30.07,NE,45,1.1,-999.0,99,-99.99,,,0.00,Acu-Link.com,2013-09-06 09:16:00,
2013-09-06 05:31:00,54.1,53.8,30.07,East,90,1.1,-999.0,99,-99.99,,,0.00,Acu-Link.com,2013-09-06 09:31:00,
2013-09-06 05:46:00,54.9,54.6,30.08,NE,45,0.0,-999.0,99,-99.99,,,0.00,Acu-Link.com,2013-09-06 09:46:00,
2013-09-06 06:02:00,54.7,54.4,30.08,NE,45,0.0,-999.0,99,-99.99,,,0.00,Acu-Link.com,2013-09-06 10:02:00,
2013-09-06 06:17:00,54.9,54.6,30.08,WNW,292,0.0,-999.0,99,-99.99,,,0.00,Acu-Link.com,2013-09-06 10:17:00,
2013-09-06 06:32:00,54.1,53.8,30.08,WNW,292,0.0,-999.0,99,-99.99,,,0.00,Acu-Link.com,2013-09-06 10:32:00,
2013-09-06 06:48:00,52.7,52.4,30.09,ESE,112,0.0,-999.0,99,-99.99,,,0.00,Acu-Link.com,2013-09-06 10:48:00,
2013-09-06 07:03:00,52.9,52.6,30.10,West,270,0.0,-999.0,99,-99.99,,,0.00,Acu-Link.com,2013-09-06 11:03:00,
2013-09-06 07:18:00,55.0,54.7,30.10,South,180,0.0,-999.0,99,-99.99,,,0.00,Acu-Link.com,2013-09-06 11:18:00,
2013-09-06 07:34:00,56.8,56.5,30.10,NE,45,0.0,-999.0,99,-99.99,,,0.00,Acu-Link.com,2013-09-06 11:34:00,
2013-09-06 07:49:00,57.4,57.1,30.11,NE,45,0.0,-999.0,99,-99.99,,,0.00,Acu-Link.com,2013-09-06 11:49:00,
2013-09-06 08:04:00,58.1,57.8,30.10,NE,45,0.0,-999.0,99,-99.99,,,0.00,Acu-Link.com,2013-09-06 12:04:00,
2013-09-06 08:19:00,59.5,58.4,30.11,East,90,2.2,-999.0,96,-99.99,,,0.00,Acu-Link.com,2013-09-06 12:19:00,
2013-09-06 08:34:00,59.9,57.6,30.11,NNE,22,3.2,-999.0,92,-99.99,,,0.00,Acu-Link.com,2013-09-06 12:34:00,
2013-09-06 08:49:00,60.4,58.1,30.11,North,0,1.7,-999.0,92,-99.99,,,0.00,Acu-Link.com,2013-09-06 12:49:00,
2013-09-06 09:04:00,61.2,58.2,30.11,NE,45,2.2,-999.0,90,-99.99,,,0.00,Acu-Link.com,2013-09-06 13:04:00,
2013-09-06 09:20:00,62.1,58.8,30.12,ESE,112,1.7,-999.0,89,-99.99,,,0.00,Acu-Link.com,2013-09-06 13:20:00,
2013-09-06 09:35:00,63.0,59.4,30.11,ENE,67,3.7,-999.0,88,-99.99,,,0.00,Acu-Link.com,2013-09-06 13:35:00,
2013-09-06 09:50:00,64.0,60.0,30.12,ENE,67,4.2,-999.0,87,-99.99,,,0.00,Acu-Link.com,2013-09-06 13:50:00,
2013-09-06 10:05:00,64.2,59.6,30.12,ESE,112,3.7,-999.0,85,-99.99,,,0.00,Acu-Link.com,2013-09-06 14:05:00,
2013-09-06 10:21:00,63.9,59.6,30.12,East,90,3.2,-999.0,86,-99.99,,,0.00,Acu-Link.com,2013-09-06 14:21:00,
2013-09-06 10:36:00,62.8,58.5,30.12,ESE,112,2.7,-999.0,86,-99.99,,,0.00,Acu-Link.com,2013-09-06 14:36:00,
2013-09-06 10:51:00,64.9,59.6,30.12,East,90,6.3,-999.0,83,-99.99,,,0.00,Acu-Link.com,2013-09-06 14:51:00,
2013-09-06 11:06:00,63.5,58.9,30.12,ESE,112,6.3,-999.0,85,-99.99,,,0.00,Acu-Link.com,2013-09-06 15:06:00,
2013-09-06 11:21:00,65.8,60.1,30.12,ESE,112,5.3,-999.0,82,-99.99,,,0.00,Acu-Link.com,2013-09-06 15:21:00,
2013-09-06 11:37:00,64.9,59.9,30.11,ESE,112,3.2,-999.0,84,-99.99,,,0.00,Acu-Link.com,2013-09-06 15:37:00,
2013-09-06 11:52:00,65.5,60.5,30.11,East,90,4.2,-999.0,84,-99.99,,,0.00,Acu-Link.com,2013-09-06 15:52:00,
2013-09-06 12:07:00,67.3,60.9,30.11,NNE,22,1.1,-999.0,80,-99.99,,,0.00,Acu-Link.com,2013-09-06 16:07:00,
2013-09-06 12:22:00,70.2,62.6,30.10,East,90,2.7,-999.0,77,-99.99,,,0.00,Acu-Link.com,2013-09-06 16:22:00,
2013-09-06 12:37:00,68.4,61.3,30.10,SSE,157,3.2,-999.0,78,-99.99,,,0.00,Acu-Link.com,2013-09-06 16:37:00,
2013-09-06 12:52:00,70.3,62.0,30.10,NE,45,5.3,-999.0,75,-99.99,,,0.00,Acu-Link.com,2013-09-06 16:52:00,
2013-09-06 13:08:00,67.6,61.6,30.10,East,90,4.7,-999.0,81,-99.99,,,0.00,Acu-Link.com,2013-09-06 17:08:00,
2013-09-06 13:23:00,67.6,60.5,30.09,ESE,112,6.8,-999.0,78,-99.99,,,0.00,Acu-Link.com,2013-09-06 17:23:00,
2013-09-06 13:38:00,70.3,61.2,30.08,SSE,157,5.3,-999.0,73,-99.99,,,0.00,Acu-Link.com,2013-09-06 17:38:00,
2013-09-06 13:53:00,71.1,62.4,30.08,East,90,3.7,-999.0,74,-99.99,,,0.00,Acu-Link.com,2013-09-06 17:53:00,
2013-09-06 14:08:00,70.5,61.4,30.06,East,90,4.7,-999.0,73,-99.99,,,0.00,Acu-Link.com,2013-09-06 18:08:00,
2013-09-06 14:24:00,72.1,62.2,30.06,ENE,67,5.8,-999.0,71,-99.99,,,0.00,Acu-Link.com,2013-09-06 18:24:00,
2013-09-06 14:39:00,72.9,62.9,30.06,ENE,67,1.7,-999.0,71,-99.99,,,0.00,Acu-Link.com,2013-09-06 18:39:00,
2013-09-06 14:54:00,69.8,60.7,30.05,East,90,5.8,-999.0,73,-99.99,,,0.00,Acu-Link.com,2013-09-06 18:54:00,
2013-09-06 15:09:00,70.3,61.2,30.05,ESE,112,3.2,-999.0,73,-99.99,,,0.00,Acu-Link.com,2013-09-06 19:09:00,
2013-09-06 15:24:00,73.0,61.8,30.03,South,180,3.7,-999.0,68,-99.99,,,0.00,Acu-Link.com,2013-09-06 19:24:00,
2013-09-06 15:39:00,73.2,62.4,30.02,ESE,112,4.7,-999.0,69,-99.99,,,0.00,Acu-Link.com,2013-09-06 19:39:00,
2013-09-06 15:55:00,73.8,62.6,30.02,East,90,6.3,-999.0,68,-99.99,,,0.00,Acu-Link.com,2013-09-06 19:55:00,
2013-09-06 16:10:00,73.4,63.8,30.02,NE,45,5.8,-999.0,72,-99.99,,,0.00,Acu-Link.com,2013-09-06 20:10:00,
2013-09-06 16:25:00,72.9,62.5,30.02,South,180,4.2,-999.0,70,-99.99,,,0.00,Acu-Link.com,2013-09-06 20:25:00,
2013-09-06 16:41:00,72.9,62.5,30.01,East,90,7.3,-999.0,70,-99.99,,,0.00,Acu-Link.com,2013-09-06 20:41:00,
2013-09-06 16:56:00,73.0,62.2,30.02,East,90,5.3,-999.0,69,-99.99,,,0.00,Acu-Link.com,2013-09-06 20:56:00,
2013-09-06 17:11:00,71.4,62.7,30.01,East,90,6.8,-999.0,74,-99.99,,,0.00,Acu-Link.com,2013-09-06 21:11:00,
2013-09-06 17:26:00,71.1,62.0,30.02,NNE,22,3.7,-999.0,73,-99.99,,,0.00,Acu-Link.com,2013-09-06 21:26:00,
2013-09-06 17:41:00,70.7,62.0,30.03,East,90,4.7,-999.0,74,-99.99,,,0.00,Acu-Link.com,2013-09-06 21:41:00,
2013-09-06 17:56:00,69.8,61.1,30.02,ESE,112,5.3,-999.0,74,-99.99,,,0.00,Acu-Link.com,2013-09-06 21:56:00,
2013-09-06 18:11:00,69.4,60.4,30.02,East,90,8.3,-999.0,73,-99.99,,,0.00,Acu-Link.com,2013-09-06 22:11:00,
2013-09-06 18:26:00,70.2,61.1,30.02,ENE,67,4.7,-999.0,73,-99.99,,,0.00,Acu-Link.com,2013-09-06 22:26:00,
2013-09-06 18:41:00,69.1,60.1,30.02,East,90,4.2,-999.0,73,-99.99,,,0.00,Acu-Link.com,2013-09-06 22:41:00,
2013-09-06 18:57:00,68.4,59.8,30.01,East,90,3.7,-999.0,74,-99.99,,,0.00,Acu-Link.com,2013-09-06 22:57:00,
2013-09-06 19:12:00,68.4,60.2,30.02,East,90,2.7,-999.0,75,-99.99,,,0.00,Acu-Link.com,2013-09-06 23:12:00,
2013-09-06 19:27:00,66.4,60.0,30.03,East,90,2.2,-999.0,80,-99.99,,,0.00,Acu-Link.com,2013-09-06 23:27:00,
2013-09-06 19:42:00,63.3,59.0,30.03,ENE,67,1.7,-999.0,86,-99.99,,,0.00,Acu-Link.com,2013-09-06 23:42:00,
2013-09-06 19:58:00,61.7,58.4,30.03,ENE,67,0.0,-999.0,89,-99.99,,,0.00,Acu-Link.com,2013-09-06 23:58:00,
2013-09-06 20:13:00,59.7,57.1,30.04,ENE,67,1.1,-999.0,91,-99.99,,,0.00,Acu-Link.com,2013-09-07 00:13:00,
2013-09-06 20:28:00,59.2,56.9,30.04,NE,45,0.0,-999.0,92,-99.99,,,0.00,Acu-Link.com,2013-09-07 00:28:00,
2013-09-06 20:44:00,58.3,56.3,30.04,NE,45,0.0,-999.0,93,-99.99,,,0.00,Acu-Link.com,2013-09-07 00:44:00,
2013-09-06 20:59:00,57.7,55.7,30.05,NE,45,0.0,-999.0,93,-99.99,,,0.00,Acu-Link.com,2013-09-07 00:59:00,
2013-09-06 21:14:00,57.0,55.6,30.04,East,90,0.0,-999.0,95,-99.99,,,0.00,Acu-Link.com,2013-09-07 01:14:00,
2013-09-06 21:29:00,56.7,55.3,30.05,ENE,67,0.0,-999.0,95,-99.99,,,0.00,Acu-Link.com,2013-09-07 01:29:00,
2013-09-06 21:45:00,55.9,54.5,30.05,ENE,67,0.0,-999.0,95,-99.99,,,0.00,Acu-Link.com,2013-09-07 01:45:00,
2013-09-06 22:00:00,55.6,54.5,30.05,SW,225,0.0,-999.0,96,-99.99,,,0.00,Acu-Link.com,2013-09-07 02:00:00,
2013-09-06 22:15:00,55.4,54.3,30.07,West,270,0.0,-999.0,96,-99.99,,,0.00,Acu-Link.com,2013-09-07 02:15:00,
2013-09-06 22:31:00,55.4,54.6,30.07,ESE,112,0.0,-999.0,97,-99.99,,,0.00,Acu-Link.com,2013-09-07 02:31:00,
2013-09-06 22:46:00,54.9,54.1,30.06,NE,45,0.0,-999.0,97,-99.99,,,0.00,Acu-Link.com,2013-09-07 02:46:00,
2013-09-06 23:01:00,54.7,53.9,30.06,NE,45,0.0,-999.0,97,-99.99,,,0.00,Acu-Link.com,2013-09-07 03:01:00,
2013-09-06 23:16:00,54.3,53.5,30.06,NE,45,0.0,-999.0,97,-99.99,,,0.00,Acu-Link.com,2013-09-07 03:16:00,
2013-09-06 23:32:00,53.6,52.8,30.05,NE,45,0.0,-999.0,97,-99.99,,,0.00,Acu-Link.com,2013-09-07 03:32:00,
2013-09-06 23:47:00,53.8,53.2,30.05,West,270,0.0,-999.0,98,-99.99,,,0.00,Acu-Link.com,2013-09-07 03:47:00,